Location: Doverdale
(52.2833°N, 2.2000°W)
Time: 14:44:07
(UTC+00:00)

NOSS 3-3 (C) - Pass Details

Date: 29 October 2020
Orbit: 825 x 1387 km, 63.4° (Epoch: 22 November)

Event Time Altitude Azimuth Distance (km) Brightness Sun altitude
Rises 19:54:10 0° 236° (SW) 3,471 7.4 -29.3°
Reaches altitude 10° 19:56:33 10° 239° (WSW) 2,587 6.7 -29.7°
Maximum altitude 20:02:33 68° 322° (NW) 1,064 4.2 -30.5°
Enters shadow 20:03:42 57° 13° (NNE) 1,175 4.3 -30.7°
